| time (UTC) | temp C | wind direction | speed KPH | gust KPH | rain 1hr cm | rain 24hr cm | rain mn cm | humidity % | barometer mb |
| 20260507020034 | 12 | 208 | 3.2 | 12.9 | 0.00 | 0.38 | 0.38 | 90 | 1006.6 |
| 20260507014531 | 12 | 159 | 3.2 | 16.1 | 0.00 | 0.38 | 0.38 | 90 | 1006.8 |
| 20260507013036 | 12 | 155 | 4.8 | 17.7 | 0.00 | 0.38 | 0.38 | 90 | 1006.9 |
| 20260507011537 | 12 | 146 | 3.2 | 17.7 | 0.00 | 0.38 | 0.38 | 90 | 1007.0 |
| 20260507010029 | 12 | 207 | 6.4 | 12.9 | 0.00 | 0.38 | 0.38 | 90 | 1007.2 |
| 20260507004526 | 12 | 184 | 6.4 | 14.5 | 0.03 | 0.38 | 0.38 | 90 | 1007.2 |
| 20260507003026 | 12 | 165 | 3.2 | 14.5 | 0.03 | 0.38 | 0.38 | 90 | 1007.2 |
| 20260507001524 | 12 | 151 | 6.4 | 16.1 | 0.03 | 0.38 | 0.38 | 90 | 1007.0 |
| 20260507000023 | 12 | 179 | 3.2 | 16.1 | 0.03 | 0.38 | 0.38 | 90 | 1007.1 |
| 20260506234525 | 12 | 188 | 4.8 | 14.5 | 0.03 | 0.36 | 0.36 | 90 | 1007.1 |
| 20260506233020 | 12 | 218 | 8.0 | 16.1 | 0.08 | 0.36 | 0.36 | 90 | 1007.1 |
| 20260506231518 | 12 | 178 | 4.8 | 12.9 | 0.15 | 0.36 | 0.36 | 90 | 1007.1 |
| 20260506230017 | 12 | 190 | 4.8 | 12.9 | 0.25 | 0.36 | 0.36 | 90 | 1007.0 |
| 20260506224524 | 12 | 202 | 4.8 | 29.0 | 0.25 | 0.33 | 0.33 | 89 | 1006.9 |
| 20260506223012 | 12 | 173 | 6.4 | 16.1 | 0.23 | 0.28 | 0.28 | 89 | 1006.9 |
| 20260506221510 | 12 | 157 | 4.8 | 24.1 | 0.15 | 0.20 | 0.20 | 89 | 1007.2 |
| 20260506220008 | 12 | 199 | 4.8 | 14.5 | 0.08 | 0.10 | 0.10 | 88 | 1007.3 |
| 20260506214506 | 13 | 229 | 3.2 | 19.3 | 0.05 | 0.08 | 0.08 | 88 | 1007.5 |
| 20260506213004 | 13 | 151 | 4.8 | 16.1 | 0.03 | 0.05 | 0.05 | 87 | 1007.6 |
| 20260506211502 | 13 | 155 | 6.4 | 12.9 | 0.03 | 0.05 | 0.05 | 87 | 1007.7 |
| 20260506210001 | 13 | 166 | 6.4 | 12.9 | 0.00 | 0.03 | 0.03 | 86 | 1007.9 |
| 20260506204600 | 13 | 192 | 4.8 | 14.5 | 0.00 | 0.03 | 0.03 | 85 | 1007.9 |
| 20260506203143 | 13 | 171 | 6.4 | 16.1 | 0.03 | 0.03 | 0.03 | 84 | 1007.9 |
| 20260506201559 | 14 | 198 | 6.4 | 14.5 | 0.03 | 0.03 | 0.03 | 84 | 1007.9 |
| 20260506200056 | 13 | 187 | 4.8 | 16.1 | 0.03 | 0.03 | 0.03 | 85 | 1008.3 |
| 20260506194555 | 13 | 154 | 4.8 | 24.1 | 0.00 | 0.00 | 0.00 | 84 | 1008.5 |
| 20260506193053 | 14 | 210 | 4.8 | 22.5 | 0.00 | 0.00 | 0.00 | 82 | 1008.6 |
| 20260506191554 | 15 | 225 | 6.4 | 24.1 | 0.00 | 0.00 | 0.00 | 79 | 1008.5 |
| 20260506190055 | 15 | 193 | 8.0 | 25.7 | 0.00 | 0.00 | 0.00 | 78 | 1008.7 |
| 20260506184558 | 15 | 221 | 9.7 | 25.7 | 0.00 | 0.00 | 0.00 | 78 | 1008.6 |
| 20260506183049 | 16 | 225 | 9.7 | 24.1 | 0.00 | 0.00 | 0.00 | 78 | 1008.8 |
| 20260506181548 | 16 | 200 | 8.0 | 22.5 | 0.00 | 0.00 | 0.00 | 78 | 1009.1 |
| 20260506180046 | 16 | 162 | 9.7 | 30.6 | 0.00 | 0.00 | 0.00 | 78 | 1009.2 |
| 20260506174546 | 16 | 159 | 8.0 | 24.1 | 0.00 | 0.00 | 0.00 | 76 | 1009.4 |
| 20260506173052 | 16 | 209 | 9.7 | 32.2 | 0.00 | 0.00 | 0.00 | 76 | 1009.9 |
| 20260506171542 | 17 | 192 | 9.7 | 22.5 | 0.00 | 0.00 | 0.00 | 75 | 1009.8 |
| 20260506170040 | 17 | 173 | 11.3 | 27.4 | 0.00 | 0.00 | 0.00 | 75 | 1009.8 |
| 20260506164545 | 16 | 213 | 11.3 | 30.6 | 0.00 | 0.00 | 0.00 | 77 | 1010.1 |
| 20260506163054 | 16 | 247 | 11.3 | 32.2 | 0.00 | 0.00 | 0.00 | 78 | 1010.3 |
| 20260506161537 | 16 | 205 | 12.9 | 24.1 | 0.00 | 0.00 | 0.00 | 76 | 1010.4 |
| 20260506160036 | 17 | 192 | 8.0 | 25.7 | 0.00 | 0.00 | 0.00 | 75 | 1010.5 |
| 20260506154537 | 17 | 173 | 9.7 | 35.4 | 0.00 | 0.00 | 0.00 | 75 | 1010.7 |
| 20260506153033 | 17 | 180 | 8.0 | 27.4 | 0.00 | 0.00 | 0.00 | 74 | 1010.9 |
| 20260506151538 | 17 | 205 | 12.9 | 30.6 | 0.00 | 0.00 | 0.00 | 76 | 1011.0 |
| 20260506150028 | 17 | 194 | 11.3 | 35.4 | 0.00 | 0.00 | 0.00 | 76 | 1011.1 |
| 20260506144528 | 16 | 179 | 11.3 | 25.7 | 0.00 | 0.00 | 0.00 | 76 | 1010.8 |
| 20260506143028 | 16 | 192 | 8.0 | 33.8 | 0.00 | 0.00 | 0.00 | 77 | 1010.9 |
| 20260506141527 | 16 | 198 | 8.0 | 25.7 | 0.00 | 0.00 | 0.00 | 77 | 1010.9 |
| 20260506140029 | 16 | 156 | 6.4 | 20.9 | 0.00 | 0.00 | 0.00 | 76 | 1010.7 |
| 20260506134523 | 16 | 194 | 9.7 | 30.6 | 0.00 | 0.00 | 0.00 | 76 | 1011.0 |
| 20260506133022 | 16 | 200 | 12.9 | 30.6 | 0.00 | 0.00 | 0.00 | 77 | 1011.3 |
| 20260506131521 | 16 | 202 | 11.3 | 35.4 | 0.00 | 0.00 | 0.00 | 78 | 1011.2 |
| 20260506130018 | 15 | 211 | 8.0 | 29.0 | 0.00 | 0.00 | 0.00 | 79 | 1011.0 |
| 20260506124517 | 15 | 220 | 8.0 | 29.0 | 0.00 | 0.00 | 0.00 | 79 | 1010.9 |
| 20260506123016 | 15 | 229 | 8.0 | 17.7 | 0.00 | 0.00 | 0.00 | 80 | 1011.0 |
| 20260506121512 | 14 | 196 | 6.4 | 20.9 | 0.00 | 0.00 | 0.00 | 82 | 1011.2 |
| 20260506120012 | 13 | 159 | 11.3 | 25.7 | 0.00 | 0.00 | 0.00 | 83 | 1011.3 |
| 20260506114508 | 13 | 215 | 6.4 | 22.5 | 0.00 | 0.00 | 0.00 | 83 | 1011.4 |
| 20260506113006 | 13 | 189 | 8.0 | 22.5 | 0.00 | 0.00 | 0.00 | 84 | 1011.6 |
| 20260506111504 | 13 | 177 | 6.4 | 19.3 | 0.00 | 0.00 | 0.00 | 85 | 1011.8 |
| 20260506110002 | 13 | 167 | 11.3 | 32.2 | 0.00 | 0.00 | 0.00 | 85 | 1011.5 |
| 20260506104609 | 13 | 213 | 6.4 | 33.8 | 0.00 | 0.00 | 0.00 | 85 | 1011.3 |
| 20260506103105 | 13 | 197 | 8.0 | 24.1 | 0.00 | 0.00 | 0.00 | 85 | 1011.3 |
| 20260506101629 | 13 | 161 | 8.0 | 16.1 | 0.00 | 0.00 | 0.00 | 86 | 1011.2 |
| 20260506100058 | 13 | 206 | 11.3 | 22.5 | 0.00 | 0.00 | 0.00 | 86 | 1011.1 |
| 20260506094558 | 12 | 183 | 9.7 | 29.0 | 0.00 | 0.00 | 0.00 | 86 | 1010.9 |
| 20260506093057 | 12 | 215 | 8.0 | 20.9 | 0.00 | 0.00 | 0.00 | 86 | 1011.1 |
| 20260506091550 | 12 | 164 | 4.8 | 16.1 | 0.00 | 0.00 | 0.00 | 87 | 1011.2 |
| 20260506090100 | 12 | 184 | 8.0 | 19.3 | 0.00 | 0.00 | 0.00 | 87 | 1011.3 |
| 20260506084552 | 12 | 222 | 4.8 | 17.7 | 0.00 | 0.00 | 0.00 | 87 | 1011.5 |
| 20260506083045 | 12 | 194 | 4.8 | 17.7 | 0.00 | 0.00 | 0.00 | 86 | 1011.6 |
| 20260506081547 | 12 | 205 | 4.8 | 14.5 | 0.00 | 0.00 | 0.00 | 86 | 1011.7 |
| 20260506073040 | 12 | 190 | 4.8 | 24.1 | 0.00 | 0.00 | 0.00 | 85 | 1011.6 |
| 20260506071539 | 12 | 216 | 8.0 | 17.7 | 0.00 | 0.00 | 0.00 | 85 | 1011.4 |
| 20260506061535 | 12 | 173 | 3.2 | 12.9 | 0.00 | 0.00 | 0.00 | 84 | 1011.5 |
| 20260506044523 | 12 | 135 | 9.7 | 22.5 | 0.00 | 0.00 | 0.00 | 83 | 1012.1 |
| 20260506043022 | 13 | 171 | 4.8 | 16.1 | 0.00 | 0.00 | 0.00 | 83 | 1012.1 |
| 20260506041534 | 13 | 178 | 6.4 | 22.5 | 0.00 | 0.00 | 0.00 | 83 | 1012.1 |
| 20260506040018 | 12 | 196 | 9.7 | 19.3 | 0.00 | 0.00 | 0.00 | 83 | 1012.1 |
| 20260506034525 | 13 | 194 | 6.4 | 16.1 | 0.00 | 0.00 | 0.00 | 82 | 1012.1 |
| 20260506033017 | 12 | 148 | 6.4 | 16.1 | 0.00 | 0.00 | 0.00 | 82 | 1011.9 |
| 20260506031516 | 12 | 210 | 6.4 | 22.5 | 0.00 | 0.00 | 0.00 | 81 | 1012.0 |
| 20260506030015 | 13 | 204 | 6.4 | 19.3 | 0.00 | 0.00 | 0.00 | 80 | 1011.8 |
| 20260506024514 | 13 | 159 | 6.4 | 16.1 | 0.00 | 0.00 | 0.00 | 79 | 1011.7 |
| 20260506023013 | 13 | 217 | 8.0 | 24.1 | 0.00 | 0.00 | 0.00 | 78 | 1011.7 |
| 20260506021513 | 13 | 155 | 6.4 | 16.1 | 0.00 | 0.00 | 0.00 | 78 | 1011.8 |